| time (UTC) | temp F | wind direction | speed MPH | gust MPH | rain 1hr in | rain 24hr in | rain mn in | humidity % | barometer mb |
| 20260904112423 | 76 | 192 | 1.0 | 2.0 | 0.00 | 0.00 | 0.00 | 90 | 1013.9 |
| 20260904111919 | 76 | 172 | 0.0 | 2.0 | 0.00 | 0.00 | 0.00 | 89 | 1013.8 |
| 20260904111414 | 76 | 228 | 0.0 | 4.0 | 0.00 | 0.00 | 0.00 | 89 | 1013.8 |
| 20260904110910 | 76 | 351 | 0.0 | 5.0 | 0.00 | 0.00 | 0.00 | 88 | 1013.7 |
| 20260904110409 | 76 | 212 | 2.0 | 4.0 | 0.00 | 0.00 | 0.00 | 88 | 1013.6 |
| 20260904105904 | 77 | 223 | 4.0 | 7.0 | 0.00 | 0.00 | 0.00 | 88 | 1013.3 |
| 20260904105359 | 77 | 208 | 4.0 | 10.0 | 0.00 | 0.00 | 0.00 | 87 | 1013.5 |
| 20260904104854 | 77 | 227 | 3.0 | 11.0 | 0.00 | 0.00 | 0.00 | 87 | 1013.5 |
| 20260904104349 | 77 | 190 | 5.0 | 10.0 | 0.00 | 0.00 | 0.00 | 87 | 1013.6 |
| 20260904103847 | 77 | 199 | 3.0 | 7.0 | 0.00 | 0.00 | 0.00 | 87 | 1013.5 |
| 20260904103347 | 77 | 217 | 10.0 | 10.0 | 0.00 | 0.00 | 0.00 | 87 | 1013.6 |
| 20260904102843 | 77 | 213 | 5.0 | 10.0 | 0.00 | 0.00 | 0.00 | 87 | 1013.3 |
| 20260904102338 | 77 | 212 | 11.0 | 14.0 | 0.00 | 0.00 | 0.00 | 87 | 1013.4 |
| 20260904101833 | 77 | 205 | 10.0 | 10.0 | 0.00 | 0.00 | 0.00 | 88 | 1013.5 |
| 20260904101330 | 77 | 213 | 7.0 | 8.0 | 0.00 | 0.00 | 0.00 | 88 | 1013.4 |
| 20260904100825 | 77 | 211 | 4.0 | 9.0 | 0.00 | 0.00 | 0.00 | 89 | 1013.3 |
| 20260904100321 | 77 | 220 | 4.0 | 9.0 | 0.00 | 0.00 | 0.00 | 89 | 1013.7 |
| 20260904095816 | 77 | 187 | 3.0 | 7.0 | 0.00 | 0.00 | 0.00 | 90 | 1013.8 |
| 20260904095311 | 76 | 207 | 4.0 | 5.0 | 0.00 | 0.00 | 0.00 | 90 | 1014.1 |
| 20260904094806 | 76 | 218 | 2.0 | 4.0 | 0.00 | 0.00 | 0.00 | 91 | 1013.9 |
| 20260904094301 | 76 | 203 | 1.0 | 3.0 | 0.00 | 0.00 | 0.00 | 91 | 1014.1 |
| 20260904093757 | 76 | 211 | 2.0 | 4.0 | 0.00 | 0.00 | 0.00 | 90 | 1013.9 |
| 20260904093257 | 77 | 198 | 1.0 | 4.0 | 0.00 | 0.00 | 0.00 | 90 | 1014.1 |
| 20260904092752 | 77 | 213 | 1.0 | 4.0 | 0.00 | 0.00 | 0.00 | 89 | 1014.0 |
| 20260904092249 | 77 | 223 | 2.0 | 4.0 | 0.00 | 0.00 | 0.00 | 89 | 1013.9 |
| 20260904091744 | 77 | 170 | 2.0 | 5.0 | 0.00 | 0.00 | 0.00 | 88 | 1014.2 |
| 20260904091239 | 78 | 186 | 2.0 | 4.0 | 0.00 | 0.00 | 0.00 | 88 | 1014.2 |
| 20260904090735 | 78 | 193 | 3.0 | 5.0 | 0.00 | 0.00 | 0.00 | 87 | 1014.1 |
| 20260904090230 | 78 | 205 | 3.0 | 6.0 | 0.00 | 0.00 | 0.00 | 87 | 1014.3 |
| 20260904085725 | 78 | 217 | 2.0 | 4.0 | 0.00 | 0.00 | 0.00 | 88 | 1014.3 |
| 20260904085220 | 77 | 228 | 0.0 | 3.0 | 0.00 | 0.00 | 0.00 | 88 | 1014.4 |
| 20260904084714 | 78 | 235 | 1.0 | 3.0 | 0.00 | 0.00 | 0.00 | 88 | 1014.2 |
| 20260904084211 | 78 | 203 | 3.0 | 5.0 | 0.00 | 0.00 | 0.00 | 87 | 1014.1 |
| 20260904083707 | 78 | 235 | 0.0 | 6.0 | 0.00 | 0.00 | 0.00 | 87 | 1014.3 |
| 20260904083203 | 78 | 212 | 2.0 | 3.0 | 0.00 | 0.00 | 0.00 | 87 | 1014.3 |
| 20260904082703 | 78 | 242 | 2.0 | 4.0 | 0.00 | 0.00 | 0.00 | 86 | 1014.3 |
| 20260904082159 | 79 | 230 | 1.0 | 4.0 | 0.00 | 0.00 | 0.00 | 86 | 1014.2 |
| 20260904081653 | 79 | 221 | 5.0 | 7.0 | 0.00 | 0.00 | 0.00 | 85 | 1013.8 |
| 20260904081149 | 79 | 220 | 3.0 | 6.0 | 0.00 | 0.00 | 0.00 | 86 | 1014.0 |
| 20260904080644 | 79 | 210 | 4.0 | 8.0 | 0.00 | 0.00 | 0.00 | 85 | 1013.5 |
| 20260904080140 | 79 | 223 | 3.0 | 8.0 | 0.00 | 0.00 | 0.00 | 85 | 1013.6 |
| 20260904075636 | 79 | 209 | 6.0 | 11.0 | 0.00 | 0.00 | 0.00 | 85 | 1013.6 |
| 20260904075131 | 79 | 205 | 5.0 | 12.0 | 0.00 | 0.00 | 0.00 | 85 | 1013.7 |
| 20260904074625 | 79 | 216 | 7.0 | 7.0 | 0.00 | 0.00 | 0.00 | 86 | 1013.5 |
| 20260904074120 | 79 | 209 | 5.0 | 9.0 | 0.00 | 0.00 | 0.00 | 87 | 1013.6 |
| 20260904073614 | 78 | 198 | 4.0 | 7.0 | 0.00 | 0.00 | 0.00 | 88 | 1013.5 |
| 20260904073111 | 78 | 202 | 5.0 | 7.0 | 0.00 | 0.00 | 0.00 | 89 | 1013.5 |
| 20260904072606 | 78 | 208 | 2.0 | 9.0 | 0.00 | 0.00 | 0.00 | 89 | 1013.6 |
| 20260904072101 | 79 | 206 | 4.0 | 8.0 | 0.00 | 0.00 | 0.00 | 88 | 1013.4 |
| 20260904071557 | 79 | 199 | 2.0 | 5.0 | 0.00 | 0.00 | 0.00 | 88 | 1013.5 |
| 20260904071052 | 79 | 186 | 9.0 | 9.0 | 0.00 | 0.00 | 0.00 | 88 | 1013.6 |
| 20260904070550 | 79 | 203 | 2.0 | 5.0 | 0.00 | 0.00 | 0.00 | 89 | 1013.7 |
| 20260904070045 | 79 | 194 | 4.0 | 7.0 | 0.00 | 0.00 | 0.00 | 88 | 1013.9 |
| 20260904065540 | 79 | 172 | 3.0 | 6.0 | 0.00 | 0.00 | 0.00 | 88 | 1013.9 |
| 20260904065037 | 79 | 178 | 1.0 | 6.0 | 0.00 | 0.00 | 0.00 | 88 | 1014.1 |
| 20260904064533 | 79 | 221 | 2.0 | 4.0 | 0.00 | 0.00 | 0.00 | 88 | 1014.1 |
| 20260904064033 | 79 | 168 | 2.0 | 3.0 | 0.00 | 0.00 | 0.00 | 88 | 1014.5 |
| 20260904063529 | 79 | 166 | 2.0 | 3.0 | 0.00 | 0.00 | 0.00 | 88 | 1014.4 |
| 20260904063024 | 80 | 212 | 3.0 | 4.0 | 0.00 | 0.00 | 0.00 | 88 | 1014.5 |
| 20260904062520 | 80 | 205 | 3.0 | 5.0 | 0.00 | 0.00 | 0.00 | 87 | 1014.8 |
| 20260904062015 | 80 | 210 | 3.0 | 4.0 | 0.00 | 0.00 | 0.00 | 87 | 1014.7 |
| 20260904061511 | 80 | 170 | 3.0 | 3.0 | 0.00 | 0.00 | 0.00 | 87 | 1014.7 |
| 20260904061008 | 80 | 212 | 2.0 | 4.0 | 0.00 | 0.00 | 0.00 | 87 | 1014.6 |
| 20260904060503 | 80 | 212 | 0.0 | 3.0 | 0.00 | 0.00 | 0.00 | 87 | 1014.4 |
| 20260904055959 | 80 | 249 | 1.0 | 3.0 | 0.00 | 0.00 | 0.00 | 87 | 1014.6 |
| 20260904055454 | 80 | 194 | 2.0 | 3.0 | 0.00 | 0.00 | 0.00 | 87 | 1014.7 |
| 20260904054949 | 80 | 213 | 0.0 | 2.0 | 0.00 | 0.00 | 0.00 | 87 | 1014.6 |
| 20260904054445 | 80 | 209 | 1.0 | 2.0 | 0.00 | 0.00 | 0.00 | 87 | 1014.9 |
| 20260904053941 | 80 | 208 | 1.0 | 3.0 | 0.00 | 0.00 | 0.00 | 86 | 1014.8 |
| 20260904053440 | 80 | 230 | 2.0 | 4.0 | 0.00 | 0.00 | 0.00 | 86 | 1014.8 |
| 20260904052936 | 80 | 217 | 0.0 | 3.0 | 0.00 | 0.00 | 0.00 | 86 | 1014.7 |
| 20260904052432 | 80 | 165 | 3.0 | 5.0 | 0.00 | 0.00 | 0.00 | 86 | 1014.7 |
| 20260904051928 | 80 | 217 | 2.0 | 4.0 | 0.00 | 0.00 | 0.00 | 86 | 1014.4 |
| 20260904051424 | 80 | 175 | 3.0 | 4.0 | 0.00 | 0.00 | 0.00 | 87 | 1014.7 |
| 20260904050918 | 80 | 218 | 0.0 | 2.0 | 0.00 | 0.00 | 0.00 | 87 | 1014.6 |
| 20260904050414 | 80 | 187 | 2.0 | 5.0 | 0.00 | 0.00 | 0.00 | 87 | 1014.3 |
| 20260904045914 | 80 | 190 | 3.0 | 4.0 | 0.00 | 0.00 | 0.00 | 87 | 1014.3 |
| 20260904045409 | 80 | 183 | 3.0 | 5.0 | 0.00 | 0.00 | 0.00 | 86 | 1014.5 |
| 20260904044909 | 81 | 163 | 1.0 | 4.0 | 0.00 | 0.00 | 0.00 | 86 | 1014.4 |
| 20260904044406 | 81 | 109 | 1.0 | 5.0 | 0.00 | 0.00 | 0.00 | 86 | 1014.5 |
| 20260904043902 | 81 | 150 | 3.0 | 4.0 | 0.00 | 0.00 | 0.00 | 86 | 1014.6 |
| 20260904043358 | 81 | 183 | 3.0 | 4.0 | 0.00 | 0.00 | 0.00 | 85 | 1014.4 |
| 20260904042853 | 81 | 140 | 2.0 | 4.0 | 0.00 | 0.00 | 0.00 | 85 | 1014.5 |
| 20260904042349 | 81 | 176 | 2.0 | 3.0 | 0.00 | 0.00 | 0.00 | 84 | 1014.5 |
| 20260904041844 | 81 | 185 | 3.0 | 4.0 | 0.00 | 0.00 | 0.00 | 84 | 1014.6 |
| 20260904041340 | 81 | 153 | 2.0 | 3.0 | 0.00 | 0.00 | 0.00 | 84 | 1014.7 |
| 20260904040836 | 81 | 183 | 3.0 | 4.0 | 0.00 | 0.00 | 0.00 | 85 | 1014.8 |
| 20260904040331 | 81 | 208 | 0.0 | 3.0 | 0.00 | 0.00 | 0.00 | 85 | 1014.7 |
| 20260904035827 | 82 | 173 | 1.0 | 3.0 | 0.00 | 0.00 | 0.00 | 84 | 1014.7 |
| 20260904035323 | 82 | 204 | 3.0 | 4.0 | 0.00 | 0.00 | 0.00 | 85 | 1014.7 |
| 20260904034821 | 82 | 198 | 1.0 | 3.0 | 0.00 | 0.00 | 0.00 | 84 | 1014.7 |
| 20260904034317 | 82 | 166 | 1.0 | 3.0 | 0.00 | 0.00 | 0.00 | 85 | 1014.8 |
| 20260904033813 | 82 | 174 | 2.0 | 3.0 | 0.00 | 0.00 | 0.00 | 84 | 1014.8 |
| 20260904033309 | 82 | 158 | 2.0 | 4.0 | 0.00 | 0.00 | 0.00 | 84 | 1014.7 |
| 20260904032805 | 83 | 181 | 3.0 | 5.0 | 0.00 | 0.00 | 0.00 | 84 | 1014.8 |
| 20260904032306 | 83 | 156 | 3.0 | 8.0 | 0.00 | 0.00 | 0.00 | 84 | 1014.8 |
| 20260904031759 | 83 | 171 | 1.0 | 6.0 | 0.00 | 0.00 | 0.00 | 84 | 1014.7 |
| 20260904031254 | 83 | 145 | 3.0 | 6.0 | 0.00 | 0.00 | 0.00 | 85 | 1014.8 |
| 20260904030750 | 83 | 187 | 1.0 | 4.0 | 0.00 | 0.00 | 0.00 | 86 | 1014.8 |
| 20260904030245 | 83 | 194 | 0.0 | 3.0 | 0.00 | 0.00 | 0.00 | 86 | 1014.8 |
| 20260904025736 | 83 | 174 | 0.0 | 3.0 | 0.00 | 0.00 | 0.00 | 86 | 1014.8 |
| 20260904025231 | 83 | 132 | 1.0 | 3.0 | 0.00 | 0.00 | 0.00 | 85 | 1014.8 |
| 20260904024726 | 83 | 149 | 1.0 | 4.0 | 0.00 | 0.00 | 0.00 | 85 | 1015.0 |
| 20260904024221 | 83 | 142 | 1.0 | 3.0 | 0.00 | 0.00 | 0.00 | 85 | 1014.9 |
| 20260904023712 | 83 | 147 | 0.0 | 4.0 | 0.00 | 0.00 | 0.00 | 84 | 1014.6 |
| 20260904023208 | 83 | 141 | 1.0 | 3.0 | 0.00 | 0.00 | 0.00 | 85 | 1014.6 |
| 20260904022707 | 84 | 141 | 2.0 | 2.0 | 0.00 | 0.00 | 0.00 | 85 | 1014.4 |
| 20260904022204 | 83 | 163 | 2.0 | 3.0 | 0.00 | 0.00 | 0.00 | 85 | 1014.5 |
| 20260904021700 | 83 | 156 | 1.0 | 2.0 | 0.00 | 0.00 | 0.00 | 85 | 1014.6 |
| 20260904021154 | 84 | 166 | 1.0 | 2.0 | 0.00 | 0.00 | 0.00 | 85 | 1014.5 |
| 20260904020651 | 84 | 127 | 2.0 | 2.0 | 0.00 | 0.00 | 0.00 | 85 | 1014.5 |
| 20260904020144 | 84 | 126 | 2.0 | 3.0 | 0.00 | 0.00 | 0.00 | 84 | 1014.5 |
| 20260904015644 | 84 | 123 | 2.0 | 3.0 | 0.00 | 0.00 | 0.00 | 84 | 1014.4 |
| 20260904015143 | 84 | 116 | 2.0 | 3.0 | 0.00 | 0.00 | 0.00 | 84 | 1014.4 |
| 20260904014642 | 85 | 140 | 1.0 | 4.0 | 0.00 | 0.00 | 0.00 | 83 | 1014.3 |
| 20260904014138 | 85 | 144 | 2.0 | 5.0 | 0.00 | 0.00 | 0.00 | 83 | 1014.3 |
| 20260904013634 | 85 | 169 | 3.0 | 4.0 | 0.00 | 0.00 | 0.00 | 83 | 1014.0 |
| 20260904013130 | 85 | 149 | 2.0 | 7.0 | 0.00 | 0.00 | 0.00 | 83 | 1014.0 |
| 20260904012626 | 85 | 136 | 2.0 | 6.0 | 0.00 | 0.00 | 0.00 | 83 | 1013.8 |
| 20260904012125 | 85 | 140 | 7.0 | 7.0 | 0.00 | 0.00 | 0.00 | 83 | 1013.7 |
| 20260904011624 | 85 | 156 | 4.0 | 7.0 | 0.00 | 0.00 | 0.00 | 83 | 1013.8 |
| 20260904011119 | 85 | 145 | 6.0 | 9.0 | 0.00 | 0.00 | 0.00 | 82 | 1013.6 |
| 20260904010615 | 86 | 161 | 5.0 | 9.0 | 0.00 | 0.00 | 0.00 | 82 | 1013.4 |
| 20260904010111 | 86 | 111 | 2.0 | 6.0 | 0.00 | 0.00 | 0.00 | 82 | 1013.4 |
| 20260904005606 | 86 | 162 | 3.0 | 5.0 | 0.00 | 0.00 | 0.00 | 82 | 1013.5 |
| 20260904005102 | 86 | 139 | 0.0 | 4.0 | 0.00 | 0.00 | 0.00 | 82 | 1013.2 |
| 20260904004557 | 86 | 152 | 2.0 | 6.0 | 0.00 | 0.00 | 0.00 | 81 | 1013.2 |
| 20260904004051 | 86 | 191 | 4.0 | 7.0 | 0.00 | 0.00 | 0.00 | 82 | 1013.4 |
| 20260904003548 | 86 | 150 | 4.0 | 6.0 | 0.00 | 0.00 | 0.00 | 81 | 1013.3 |
| 20260904003044 | 86 | 173 | 2.0 | 5.0 | 0.00 | 0.00 | 0.00 | 80 | 1013.2 |
| 20260904002539 | 87 | 149 | 4.0 | 5.0 | 0.00 | 0.00 | 0.00 | 80 | 1013.2 |
| 20260904002038 | 87 | 173 | 3.0 | 7.0 | 0.00 | 0.00 | 0.00 | 79 | 1013.3 |
| 20260904001535 | 87 | 161 | 3.0 | 6.0 | 0.00 | 0.00 | 0.00 | 79 | 1013.5 |
| 20260904001034 | 87 | 184 | 2.0 | 5.0 | 0.00 | 0.00 | 0.00 | 79 | 1013.4 |
| 20260904000533 | 88 | 177 | 3.0 | 5.0 | 0.00 | 0.00 | 0.00 | 78 | 1013.5 |
| 20260904000030 | 88 | 207 | 2.0 | 5.0 | 0.00 | 0.00 | 0.00 | 77 | 1013.5 |
| 20260903235524 | 88 | 134 | 0.0 | 4.0 | 0.00 | 0.00 | 0.00 | 77 | 1013.5 |
| 20260903235020 | 88 | 185 | 3.0 | 6.0 | 0.00 | 0.00 | 0.00 | 76 | 1013.5 |
| 20260903234515 | 88 | 199 | 2.0 | 4.0 | 0.00 | 0.00 | 0.00 | 76 | 1013.8 |
| 20260903234010 | 89 | 196 | 5.0 | 6.0 | 0.00 | 0.00 | 0.00 | 75 | 1013.5 |
| 20260903233507 | 89 | 210 | 3.0 | 5.0 | 0.00 | 0.00 | 0.00 | 76 | 1013.3 |
| 20260903233002 | 89 | 174 | 3.0 | 5.0 | 0.00 | 0.00 | 0.00 | 75 | 1013.4 |
| 20260903232457 | 89 | 186 | 1.0 | 7.0 | 0.00 | 0.00 | 0.00 | 75 | 1013.4 |
| 20260903231956 | 89 | 174 | 4.0 | 7.0 | 0.00 | 0.00 | 0.00 | 75 | 1013.2 |
| 20260903231451 | 89 | 204 | 4.0 | 7.0 | 0.00 | 0.00 | 0.00 | 74 | 1013.4 |
| 20260903230945 | 89 | 184 | 1.0 | 6.0 | 0.00 | 0.00 | 0.00 | 74 | 1013.5 |
| 20260903230442 | 89 | 166 | 2.0 | 6.0 | 0.00 | 0.00 | 0.00 | 74 | 1013.6 |
| 20260903225938 | 89 | 187 | 2.0 | 7.0 | 0.00 | 0.00 | 0.00 | 73 | 1013.7 |
| 20260903225433 | 90 | 148 | 4.0 | 8.0 | 0.00 | 0.00 | 0.00 | 72 | 1013.4 |
| 20260903224929 | 90 | 208 | 3.0 | 6.0 | 0.00 | 0.00 | 0.00 | 72 | 1013.5 |
| 20260903224425 | 90 | 195 | 4.0 | 7.0 | 0.00 | 0.00 | 0.00 | 72 | 1013.7 |
| 20260903223921 | 90 | 151 | 4.0 | 9.0 | 0.00 | 0.00 | 0.00 | 71 | 1013.7 |
| 20260903223420 | 90 | 212 | 2.0 | 7.0 | 0.00 | 0.00 | 0.00 | 71 | 1014.0 |
| 20260903222919 | 91 | 191 | 1.0 | 7.0 | 0.00 | 0.00 | 0.00 | 69 | 1013.8 |
| 20260903222415 | 91 | 180 | 3.0 | 4.0 | 0.00 | 0.00 | 0.00 | 69 | 1013.7 |
| 20260903221909 | 92 | 183 | 2.0 | 6.0 | 0.00 | 0.00 | 0.00 | 68 | 1013.8 |
| 20260903221408 | 93 | 165 | 5.0 | 8.0 | 0.00 | 0.00 | 0.00 | 65 | 1013.8 |
| 20260903220906 | 93 | 204 | 6.0 | 8.0 | 0.00 | 0.00 | 0.00 | 65 | 1013.8 |
| 20260903220401 | 93 | 158 | 3.0 | 10.0 | 0.00 | 0.00 | 0.00 | 63 | 1013.8 |
| 20260903215858 | 93 | 188 | 3.0 | 9.0 | 0.00 | 0.00 | 0.00 | 60 | 1013.6 |
| 20260903215355 | 94 | 215 | 4.0 | 12.0 | 0.00 | 0.00 | 0.00 | 60 | 1013.7 |
| 20260903214853 | 94 | 172 | 6.0 | 8.0 | 0.00 | 0.00 | 0.00 | 61 | 1013.9 |
| 20260903214349 | 93 | 139 | 5.0 | 7.0 | 0.00 | 0.00 | 0.00 | 64 | 1013.7 |
| 20260903213848 | 93 | 218 | 4.0 | 9.0 | 0.00 | 0.00 | 0.00 | 65 | 1014.0 |
| 20260903213344 | 93 | 209 | 3.0 | 10.0 | 0.00 | 0.00 | 0.00 | 64 | 1013.9 |
| 20260903212840 | 93 | 249 | 0.0 | 4.0 | 0.00 | 0.00 | 0.00 | 64 | 1014.0 |
| 20260903212336 | 93 | 164 | 4.0 | 7.0 | 0.00 | 0.00 | 0.00 | 64 | 1014.1 |
| 20260903211835 | 92 | 200 | 7.0 | 8.0 | 0.00 | 0.00 | 0.00 | 65 | 1013.9 |
| 20260903211331 | 93 | 168 | 6.0 | 7.0 | 0.00 | 0.00 | 0.00 | 63 | 1013.9 |
| 20260903210827 | 94 | 213 | 0.0 | 7.0 | 0.00 | 0.00 | 0.00 | 62 | 1013.9 |
| 20260903210322 | 92 | 148 | 6.0 | 10.0 | 0.00 | 0.00 | 0.00 | 62 | 1013.7 |
| 20260903205821 | 93 | 106 | 0.0 | 8.0 | 0.00 | 0.00 | 0.00 | 62 | 1013.8 |
| 20260903205316 | 94 | 167 | 3.0 | 5.0 | 0.00 | 0.00 | 0.00 | 62 | 1014.0 |
| 20260903204811 | 94 | 177 | 3.0 | 7.0 | 0.00 | 0.00 | 0.00 | 61 | 1014.1 |
| 20260903204307 | 93 | 148 | 4.0 | 5.0 | 0.00 | 0.00 | 0.00 | 63 | 1014.0 |
| 20260903203803 | 93 | 177 | 3.0 | 8.0 | 0.00 | 0.00 | 0.00 | 64 | 1014.1 |
| 20260903203258 | 93 | 237 | 3.0 | 8.0 | 0.00 | 0.00 | 0.00 | 62 | 1014.2 |
| 20260903202757 | 92 | 141 | 6.0 | 9.0 | 0.00 | 0.00 | 0.00 | 62 | 1014.1 |
| 20260903202254 | 93 | 195 | 8.0 | 8.0 | 0.00 | 0.00 | 0.00 | 61 | 1014.3 |
| 20260903201753 | 92 | 152 | 1.0 | 4.0 | 0.00 | 0.00 | 0.00 | 63 | 1014.3 |
| 20260903201249 | 92 | 142 | 4.0 | 9.0 | 0.00 | 0.00 | 0.00 | 64 | 1014.2 |
| 20260903200747 | 93 | 203 | 2.0 | 6.0 | 0.00 | 0.00 | 0.00 | 63 | 1014.3 |
| 20260903200243 | 91 | 198 | 3.0 | 11.0 | 0.00 | 0.00 | 0.00 | 64 | 1014.3 |
| 20260903195737 | 93 | 97 | 3.0 | 4.0 | 0.00 | 0.00 | 0.00 | 62 | 1014.5 |
| 20260903195234 | 92 | 165 | 3.0 | 3.0 | 0.00 | 0.00 | 0.00 | 64 | 1014.5 |
| 20260903194733 | 93 | 308 | 2.0 | 4.0 | 0.00 | 0.00 | 0.00 | 62 | 1014.6 |
| 20260903194229 | 91 | 144 | 2.0 | 7.0 | 0.00 | 0.00 | 0.00 | 66 | 1014.6 |
| 20260903193724 | 92 | 72 | 2.0 | 6.0 | 0.00 | 0.00 | 0.00 | 63 | 1014.8 |
| 20260903193220 | 91 | 337 | 2.0 | 5.0 | 0.00 | 0.00 | 0.00 | 66 | 1014.8 |
| 20260903192716 | 91 | 152 | 5.0 | 6.0 | 0.00 | 0.00 | 0.00 | 64 | 1014.9 |
| 20260903192211 | 91 | 72 | 1.0 | 5.0 | 0.00 | 0.00 | 0.00 | 65 | 1014.9 |
| 20260903191708 | 90 | 92 | 5.0 | 7.0 | 0.00 | 0.00 | 0.00 | 65 | 1014.9 |
| 20260903191202 | 90 | 235 | 1.0 | 9.0 | 0.00 | 0.00 | 0.00 | 68 | 1015.1 |
| 20260903190656 | 91 | 131 | 3.0 | 5.0 | 0.00 | 0.00 | 0.00 | 66 | 1015.0 |
| 20260903190151 | 90 | 357 | 2.0 | 4.0 | 0.00 | 0.00 | 0.00 | 68 | 1014.9 |
| 20260903185646 | 91 | 344 | 2.0 | 6.0 | 0.00 | 0.00 | 0.00 | 66 | 1015.0 |
| 20260903185141 | 89 | 12 | 3.0 | 7.0 | 0.00 | 0.00 | 0.00 | 67 | 1015.2 |
| 20260903184638 | 89 | 123 | 2.0 | 5.0 | 0.00 | 0.00 | 0.00 | 68 | 1015.3 |
| 20260903184133 | 88 | 328 | 4.0 | 7.0 | 0.00 | 0.00 | 0.00 | 71 | 1015.3 |
| 20260903183632 | 88 | 318 | 4.0 | 7.0 | 0.00 | 0.00 | 0.00 | 71 | 1015.3 |
| 20260903183127 | 88 | 59 | 2.0 | 7.0 | 0.00 | 0.00 | 0.00 | 69 | 1015.4 |
| 20260903182626 | 88 | 346 | 5.0 | 9.0 | 0.00 | 0.00 | 0.00 | 69 | 1015.4 |
| 20260903182122 | 88 | 346 | 6.0 | 8.0 | 0.00 | 0.00 | 0.00 | 70 | 1015.4 |
| 20260903181620 | 88 | 17 | 10.0 | 11.0 | 0.00 | 0.00 | 0.00 | 69 | 1015.6 |
| 20260903181115 | 88 | 14 | 9.0 | 11.0 | 0.00 | 0.00 | 0.00 | 72 | 1015.2 |
| 20260903180611 | 89 | 349 | 5.0 | 14.0 | 0.00 | 0.00 | 0.00 | 69 | 1015.5 |
| 20260903180105 | 89 | 349 | 3.0 | 10.0 | 0.00 | 0.00 | 0.00 | 70 | 1015.5 |
| 20260903175604 | 89 | 350 | 3.0 | 8.0 | 0.00 | 0.00 | 0.00 | 68 | 1015.7 |
| 20260903175103 | 89 | 314 | 3.0 | 15.0 | 0.00 | 0.00 | 0.00 | 68 | 1015.8 |
| 20260903174558 | 88 | 339 | 6.0 | 13.0 | 0.00 | 0.00 | 0.00 | 68 | 1015.9 |
| 20260903174053 | 88 | 9 | 5.0 | 15.0 | 0.00 | 0.00 | 0.00 | 67 | 1016.0 |
| 20260903173548 | 89 | 355 | 4.0 | 14.0 | 0.00 | 0.00 | 0.00 | 67 | 1015.8 |
| 20260903173044 | 89 | 319 | 7.0 | 10.0 | 0.00 | 0.00 | 0.00 | 67 | 1016.0 |
| 20260903172539 | 89 | 355 | 4.0 | 13.0 | 0.00 | 0.00 | 0.00 | 68 | 1015.9 |
| 20260903172034 | 89 | 321 | 5.0 | 9.0 | 0.00 | 0.00 | 0.00 | 70 | 1015.8 |
| 20260903171529 | 88 | 320 | 5.0 | 11.0 | 0.00 | 0.00 | 0.00 | 71 | 1015.7 |
| 20260903171025 | 88 | 0 | 6.0 | 13.0 | 0.00 | 0.00 | 0.00 | 71 | 1015.8 |
| 20260903170523 | 87 | 343 | 6.0 | 9.0 | 0.00 | 0.00 | 0.00 | 74 | 1015.8 |
| 20260903170020 | 88 | 295 | 5.0 | 9.0 | 0.00 | 0.00 | 0.00 | 70 | 1015.8 |
| 20260903165516 | 91 | 319 | 2.0 | 7.0 | 0.00 | 0.00 | 0.00 | 68 | 1015.5 |
| 20260903165012 | 89 | 310 | 5.0 | 9.0 | 0.00 | 0.00 | 0.00 | 68 | 1015.6 |
| 20260903164512 | 90 | 289 | 5.0 | 11.0 | 0.00 | 0.00 | 0.00 | 67 | 1015.7 |
| 20260903164008 | 89 | 283 | 4.0 | 8.0 | 0.00 | 0.00 | 0.00 | 67 | 1015.6 |
| 20260903163503 | 90 | 320 | 3.0 | 6.0 | 0.00 | 0.00 | 0.00 | 67 | 1015.7 |
| 20260903162959 | 91 | 249 | 2.0 | 7.0 | 0.00 | 0.00 | 0.00 | 64 | 1015.3 |
| 20260903162455 | 93 | 285 | 6.0 | 8.0 | 0.00 | 0.00 | 0.00 | 61 | 1015.3 |
| 20260903161950 | 93 | 227 | 5.0 | 6.0 | 0.00 | 0.00 | 0.00 | 62 | 1015.0 |
| 20260903161446 | 93 | 299 | 1.0 | 7.0 | 0.00 | 0.00 | 0.00 | 65 | 1015.2 |
| 20260903160942 | 92 | 289 | 3.0 | 6.0 | 0.00 | 0.00 | 0.00 | 63 | 1015.1 |
| 20260903160440 | 91 | 199 | 2.0 | 9.0 | 0.00 | 0.00 | 0.00 | 66 | 1015.1 |
| 20260903155939 | 90 | 184 | 4.0 | 10.0 | 0.00 | 0.00 | 0.00 | 68 | 1015.0 |
| 20260903155439 | 90 | 212 | 3.0 | 9.0 | 0.00 | 0.00 | 0.00 | 68 | 1015.2 |
| 20260903154935 | 89 | 203 | 4.0 | 11.0 | 0.00 | 0.00 | 0.00 | 69 | 1015.0 |
| 20260903154426 | 92 | 255 | 2.0 | 6.0 | 0.00 | 0.00 | 0.00 | 65 | 1015.0 |
| 20260903153921 | 90 | 238 | 3.0 | 6.0 | 0.00 | 0.00 | 0.00 | 68 | 1014.9 |
| 20260903153416 | 90 | 254 | 2.0 | 5.0 | 0.00 | 0.00 | 0.00 | 67 | 1014.9 |
| 20260903152913 | 88 | 197 | 3.0 | 12.0 | 0.00 | 0.00 | 0.00 | 69 | 1015.1 |
| 20260903152408 | 89 | 233 | 0.0 | 8.0 | 0.00 | 0.00 | 0.00 | 70 | 1014.8 |
| 20260903151909 | 88 | 267 | 2.0 | 9.0 | 0.00 | 0.00 | 0.00 | 70 | 1015.1 |
| 20260903151404 | 88 | 201 | 11.0 | 11.0 | 0.00 | 0.00 | 0.00 | 69 | 1015.0 |
| 20260903150858 | 90 | 225 | 4.0 | 5.0 | 0.00 | 0.00 | 0.00 | 68 | 1015.0 |
| 20260903150353 | 89 | 218 | 3.0 | 9.0 | 0.00 | 0.00 | 0.00 | 69 | 1014.9 |
| 20260903145848 | 88 | 333 | 2.0 | 5.0 | 0.00 | 0.00 | 0.00 | 70 | 1014.9 |
| 20260903145343 | 88 | 204 | 6.0 | 13.0 | 0.00 | 0.00 | 0.00 | 70 | 1015.0 |
| 20260903144842 | 88 | 230 | 2.0 | 7.0 | 0.00 | 0.00 | 0.00 | 70 | 1015.1 |
| 20260903144337 | 87 | 239 | 4.0 | 9.0 | 0.00 | 0.00 | 0.00 | 71 | 1015.1 |
| 20260903143833 | 87 | 212 | 3.0 | 8.0 | 0.00 | 0.00 | 0.00 | 71 | 1015.2 |
| 20260903143330 | 87 | 116 | 1.0 | 7.0 | 0.00 | 0.00 | 0.00 | 72 | 1015.0 |
| 20260903142825 | 87 | 269 | 3.0 | 8.0 | 0.00 | 0.00 | 0.00 | 71 | 1015.0 |
| 20260903142321 | 86 | 274 | 3.0 | 6.0 | 0.00 | 0.00 | 0.00 | 72 | 1015.0 |
| 20260903141816 | 85 | 254 | 5.0 | 7.0 | 0.00 | 0.00 | 0.00 | 75 | 1015.0 |
| 20260903141312 | 85 | 252 | 3.0 | 7.0 | 0.00 | 0.00 | 0.00 | 75 | 1014.8 |
| 20260903140812 | 84 | 203 | 4.0 | 7.0 | 0.00 | 0.00 | 0.00 | 76 | 1014.9 |
| 20260903140307 | 83 | 220 | 7.0 | 10.0 | 0.00 | 0.00 | 0.00 | 78 | 1014.9 |
| 20260903135803 | 83 | 227 | 4.0 | 11.0 | 0.00 | 0.00 | 0.00 | 78 | 1014.9 |
| 20260903135258 | 83 | 203 | 8.0 | 10.0 | 0.00 | 0.00 | 0.00 | 78 | 1015.1 |
| 20260903134757 | 83 | 202 | 5.0 | 11.0 | 0.00 | 0.00 | 0.00 | 78 | 1015.0 |
| 20260903134253 | 82 | 242 | 3.0 | 7.0 | 0.00 | 0.00 | 0.00 | 79 | 1015.0 |
| 20260903133750 | 83 | 172 | 5.0 | 7.0 | 0.00 | 0.00 | 0.00 | 78 | 1015.0 |
| 20260903133246 | 82 | 248 | 4.0 | 6.0 | 0.00 | 0.00 | 0.00 | 79 | 1015.1 |
| 20260903132741 | 81 | 201 | 5.0 | 9.0 | 0.00 | 0.00 | 0.00 | 80 | 1015.2 |
| 20260903132236 | 82 | 213 | 6.0 | 7.0 | 0.00 | 0.00 | 0.00 | 80 | 1014.9 |
| 20260903131731 | 81 | 206 | 9.0 | 10.0 | 0.00 | 0.00 | 0.00 | 80 | 1014.8 |
| 20260903131230 | 81 | 231 | 4.0 | 7.0 | 0.00 | 0.00 | 0.00 | 81 | 1014.9 |
| 20260903130725 | 80 | 205 | 7.0 | 10.0 | 0.00 | 0.00 | 0.00 | 81 | 1015.0 |
| 20260903130220 | 80 | 220 | 2.0 | 9.0 | 0.00 | 0.00 | 0.00 | 82 | 1015.2 |
| 20260903125718 | 80 | 209 | 4.0 | 8.0 | 0.00 | 0.00 | 0.00 | 82 | 1015.1 |
| 20260903125214 | 80 | 209 | 7.0 | 7.0 | 0.00 | 0.00 | 0.00 | 82 | 1015.1 |
| 20260903124713 | 80 | 226 | 4.0 | 7.0 | 0.00 | 0.00 | 0.00 | 83 | 1015.1 |
| 20260903124209 | 79 | 209 | 2.0 | 5.0 | 0.00 | 0.00 | 0.00 | 83 | 1015.0 |
| 20260903123707 | 79 | 246 | 2.0 | 5.0 | 0.00 | 0.00 | 0.00 | 84 | 1015.4 |
| 20260903123206 | 79 | 228 | 4.0 | 5.0 | 0.00 | 0.00 | 0.00 | 84 | 1015.1 |
| 20260903122705 | 79 | 203 | 5.0 | 7.0 | 0.00 | 0.00 | 0.00 | 84 | 1015.2 |
| 20260903122200 | 78 | 197 | 3.0 | 4.0 | 0.00 | 0.00 | 0.00 | 85 | 1015.4 |
| 20260903121659 | 78 | 220 | 0.0 | 2.0 | 0.00 | 0.00 | 0.00 | 86 | 1015.4 |
| 20260903121155 | 77 | 206 | 2.0 | 4.0 | 0.00 | 0.00 | 0.00 | 87 | 1015.3 |
| 20260903120654 | 77 | 192 | 0.0 | 4.0 | 0.00 | 0.00 | 0.00 | 88 | 1015.4 |
| 20260903120149 | 76 | 212 | 3.0 | 5.0 | 0.00 | 0.00 | 0.00 | 89 | 1015.4 |
| 20260903115647 | 76 | 175 | 3.0 | 4.0 | 0.00 | 0.00 | 0.00 | 89 | 1015.3 |
| 20260903115143 | 76 | 163 | 2.0 | 4.0 | 0.00 | 0.00 | 0.00 | 90 | 1015.1 |
| 20260903114638 | 76 | 192 | 2.0 | 3.0 | 0.00 | 0.00 | 0.00 | 90 | 1015.0 |
| 20260903114133 | 76 | 208 | 1.0 | 4.0 | 0.00 | 0.00 | 0.00 | 90 | 1015.1 |
| 20260903113628 | 76 | 183 | 1.0 | 3.0 | 0.00 | 0.00 | 0.00 | 89 | 1015.2 |
| 20260903113124 | 76 | 203 | 4.0 | 4.0 | 0.00 | 0.00 | 0.00 | 89 | 1015.3 |
| 20260903112621 | 76 | 202 | 2.0 | 4.0 | 0.00 | 0.00 | 0.00 | 89 | 1015.2 |